Date,TemperatureHighF,TemperatureAvgF,TemperatureLowF,DewpointHighF,DewpointAvgF,DewpointLowF,HumidityHigh,HumidityAvg,HumidityLow,PressureMaxIn,PressureMinIn,WindSpeedMaxMPH,WindSpeedAvgMPH,GustSpeedMaxMPH,PrecipitationSumIn
2013-1-1,33,25,16,31,16,6,92,67,52,29.63,29.48,12,5,12,0.00
2013-1-2,35,21,13,14,8,2,68,55,40,29.69,29.60,6,2,6,0.00
2013-1-3,40,28,19,22,15,7,69,58,45,29.78,29.60,13,4,13,0.00
2013-1-4,41,30,23,21,18,15,77,62,41,29.81,29.69,15,3,17,0.00
2013-1-5,44,33,23,28,22,16,77,64,44,29.72,29.48,13,3,13,0.00
2013-1-6,38,32,22,29,21,14,73,62,45,29.75,29.45,22,6,22,0.00
2013-1-7,45,30,19,23,18,12,78,62,38,29.81,29.57,11,2,11,0.00
2013-1-8,51,37,24,30,23,17,77,58,36,29.66,29.54,11,2,11,0.00
2013-1-9,59,47,39,45,34,26,91,64,36,29.87,29.57,10,0,10,0.16
2013-1-10,58,46,41,58,40,25,98,79,48,29.87,29.25,13,5,13,0.12
2013-1-11,63,56,52,58,49,43,98,77,51,29.34,29.22,21,6,22,0.20
2013-1-12,66,52,35,54,47,33,98,84,59,29.39,29.19,23,6,23,1.78
2013-1-13,35,28,21,34,23,9,96,80,59,29.72,29.28,18,4,18,1.90
2013-1-14,29,23,18,14,10,6,73,59,47,29.87,29.72,11,4,13,0.00
2013-1-15,30,26,20,19,15,12,75,63,51,29.78,29.48,13,5,14,0.00
2013-1-16,42,32,24,22,18,15,81,58,37,29.54,29.42,11,4,11,0.00
2013-1-17,42,35,25,28,21,15,66,56,44,29.87,29.51,18,5,19,0.00
2013-1-18,48,34,22,24,20,15,78,57,37,29.90,29.54,23,5,23,0.00
2013-1-19,58,46,38,32,28,23,59,48,35,29.60,29.34,23,8,23,0.00
2013-1-20,44,33,26,28,12,6,57,42,31,29.72,29.48,18,6,18,0.00
2013-1-21,27,21,14,9,1,-8,58,41,32,29.75,29.63,23,8,24,0.00
2013-1-22,24,18,11,5,-3,-11,50,40,35,29.84,29.72,14,4,14,0.00
2013-1-23,44,27,14,18,10,3,63,49,34,29.75,29.51,18,4,20,0.00
2013-1-24,28,23,15,10,2,-4,48,40,35,29.96,29.66,20,6,20,0.00
2013-1-25,43,32,26,18,10,2,53,40,33,29.66,29.48,15,4,15,0.00
2013-1-26,40,30,22,16,10,5,57,44,33,29.75,29.60,12,4,13,0.00
2013-1-27,47,35,26,44,28,11,98,77,51,29.72,29.42,17,4,19,0.13
2013-1-28,60,56,47,58,53,44,97,92,86,29.45,29.36,19,6,19,0.25
2013-1-29,66,62,53,59,55,50,98,80,62,29.36,28.86,35,9,35,1.16
2013-1-30,55,42,29,53,36,12,98,80,48,29.31,28.86,33,10,33,1.53
2013-1-31,35,26,12,26,12,-4,93,56,44,29.72,29.31,28,11,28,0.00